Estación meteorológica de Cercs - La Baells (Berguedà, Cercs)

Consulta los datos en tiempo real de la estación meteorológica de Cercs - La Baells





Hora UTC 06:45
Temperatura 7.4 ºC
Humedad 91.4 %
Presión 1011.2 hPa
Pluja 0.0 mm
Velocidad viento 0.2 km/h
Dirección viento E

Datos diarios 2026-05-05



Hora UTC (invierno +1h; verano +2h)
DADES NO VALIDADES
Temperatura (ºC) Humedad (%) Presión (hPa) Velocidad viento (km/h) Precipitación (mm)
Hora UTC Aire Humedad Presión Vel. Dir. Vel. Max Dir. Intent. máx 5 min.
00:05 8.8 95.3 1011.2 0.1 ESE 0.1 SE 0.0
00:10 8.8 94.8 1011.2 0.1 W 0.1 W 0.0
00:15 8.7 94.7 1011.2 0.2 NW 0.2 NW 0.0
00:20 8.6 94.1 1011.2 0.6 NW 0.6 NW 0.0
00:25 8.5 93.9 1011.2 0.7 NW 0.7 NW 0.0
00:30 8.4 93.1 1010.4 1.1 NW 1.1 NW 0.0
00:35 8.4 92.9 1010.2 1.3 NW 1.3 NW 0.0
00:40 8.3 92.7 1010.2 0.6 NW 1.3 NW 0.0
00:45 8.2 92.6 1010.2 0.4 NW 1.3 NW 0.0
00:50 8.2 92.8 1010.2 0.8 NW 1.3 NW 0.0
00:55 8.2 92.9 1010.2 0.9 NNW 1.3 NW 0.0
01:00 8.2 93.0 1010.2 0.3 NNW 1.3 NW 0.0
01:05 8.2 93.0 1010.2 0.2 NNW 1.3 NW 0.0
01:10 8.2 92.5 1010.2 0.2 NW 1.3 NW 0.0
01:15 8.2 92.3 1010.2 0.1 NW 1.3 NW 0.0
01:20 8.1 92.0 1010.2 0.0 NNW 1.3 NW 0.0
01:25 8.1 91.9 1010.2 0.0 N 1.3 NW 0.0
01:30 7.9 92.4 1010.2 0.1 SE 1.3 NW 0.0
01:35 7.8 92.6 1010.2 0.1 E 1.3 NW 0.0
01:40 7.6 93.5 1010.2 0.1 SW 1.3 NW 0.0
01:45 7.5 93.8 1010.2 0.1 W 1.3 NW 0.0
01:50 7.3 94.0 1010.2 0.1 SE 1.3 NW 0.0
01:55 7.3 94.1 1010.2 0.1 E 1.3 NW 0.0
01:55 7.3 94.1 1010.2 0.1 E 1.3 NW 0.0
01:55 7.3 94.1 1010.2 0.1 E 1.3 NW 0.0
02:15 7.4 94.6 1011.2 0.0 E 1.3 NW 0.0
02:20 7.4 94.5 1011.2 0.0 SE 1.3 NW 0.0
02:25 7.4 94.5 1011.2 0.0 SE 1.3 NW 0.0
02:30 7.4 94.1 1010.4 0.2 W 1.3 NW 0.0
02:35 7.4 94.0 1010.2 0.2 NW 1.3 NW 0.0
02:40 7.4 94.2 1010.2 0.3 NW 1.3 NW 0.0
02:45 7.4 94.3 1010.2 0.4 NW 1.3 NW 0.0
02:50 7.3 94.5 1010.2 0.4 NW 1.3 NW 0.0
02:55 7.3 94.5 1010.2 0.4 NW 1.3 NW 0.0
03:00 7.3 94.4 1010.2 0.4 NW 1.3 NW 0.0
03:05 7.3 94.4 1010.2 0.4 NW 1.3 NW 0.0
03:10 7.3 94.2 1010.2 0.2 NW 1.3 NW 0.0
03:15 7.2 94.1 1010.2 0.1 NW 1.3 NW 0.0
03:20 7.2 94.0 1010.2 0.2 NW 1.3 NW 0.0
03:25 7.2 94.0 1010.2 0.2 NW 1.3 NW 0.0
03:30 7.1 94.2 1010.2 0.0 W 1.3 NW 0.0
03:35 7.1 94.2 1010.2 0.0 WSW 1.3 NW 0.0
03:40 7.0 94.4 1010.2 0.1 WNW 1.3 NW 0.0
03:45 6.9 94.4 1010.2 0.1 NW 1.3 NW 0.0
03:50 6.8 94.2 1010.2 0.2 WNW 1.3 NW 0.0
03:55 6.8 94.2 1010.2 0.2 WNW 1.3 NW 0.0
04:00 6.7 94.4 1010.2 0.2 WNW 1.3 NW 0.0
04:05 6.7 94.5 1010.2 0.2 WNW 1.3 NW 0.0
04:10 6.8 94.5 1010.2 0.2 WNW 1.3 NW 0.0
04:15 6.8 94.5 1010.2 0.2 WNW 1.3 NW 0.0
04:20 6.8 94.6 1010.2 0.3 NW 1.3 NW 0.0
04:25 6.9 94.6 1010.2 0.3 NW 1.3 NW 0.0
04:30 7.0 94.7 1010.2 0.3 NNW 1.3 NW 0.0
04:35 7.0 94.7 1010.2 0.3 NNW 1.3 NW 0.0
04:40 7.1 94.1 1010.2 0.4 NNW 1.3 NW 0.0
04:45 7.1 93.9 1010.2 0.5 NNW 1.3 NW 0.0
04:50 7.0 93.7 1010.2 0.4 NNW 1.3 NW 0.0
04:55 7.0 93.6 1010.2 0.3 NNW 1.3 NW 0.0
05:00 6.9 93.3 1010.2 0.1 NW 1.3 NW 0.0
05:05 6.9 93.2 1010.2 0.1 NW 1.3 NW 0.0
05:10 6.6 92.6 1010.2 0.2 SE 1.3 NW 0.0
05:15 6.6 92.5 1010.2 0.2 E 1.3 NW 0.0
05:20 6.4 93.3 1010.2 0.2 E 1.3 NW 0.0
05:25 6.3 93.5 1010.2 0.2 E 1.3 NW 0.0
05:30 6.2 94.1 1011.0 0.2 E 1.3 NW 0.0
05:35 6.2 94.3 1011.2 0.2 E 1.3 NW 0.0
05:40 6.3 94.5 1011.2 0.2 E 1.3 NW 0.0
05:45 6.4 94.6 1011.2 0.2 E 1.3 NW 0.0
05:50 6.7 94.3 1011.2 0.1 ESE 1.3 NW 0.0
05:55 6.8 94.2 1011.2 0.1 SE 1.3 NW 0.0
05:55 6.8 94.2 1011.2 0.1 SE 1.3 NW 0.0
06:00 7.0 93.4 1011.2 0.1 W 1.3 NW 0.0
06:10 7.3 93.0 1011.2 0.1 NW 1.3 NW 0.0
06:15 7.4 93.0 1011.2 0.1 NNW 1.3 NW 0.0
06:20 7.3 91.8 1011.2 0.2 NW 1.3 NW 0.0
06:25 7.3 91.5 1011.2 0.2 NW 1.3 NW 0.0
06:30 7.3 91.9 1011.2 0.1 NNW 1.3 NW 0.0
06:35 7.3 92.0 1011.2 0.1 N 1.3 NW 0.0
06:40 7.3 91.5 1011.2 0.2 SSE 1.3 NW 0.0
06:45 7.4 91.4 1011.2 0.2 E 1.3 NW 0.0
Máxima 8.8 95.3 1011.2 1.3 NW 1.3 NW 0.0
Mínima 6.2 91.4 1010.2
Total 0.0